Wetterdaten: Donnerstag, 07.03.2013
Datum Zeit Temperatur Luftfeuchte Luftdruck Regen Wind Richtung Richtung Sonnenschein ET UV Solar Taupunkt Windchill Windben
07.03.2013 00:00 2,3 C 78 % 1001,5 hPa 0,0 l/m 0,0 km/h (0 Bft) NO 46 0 min 0,000 mm 0,0 UV-I 0 W/m -1,1 C 2,3 C 0,0 km/h (0 Bft)
07.03.2013 00:05 2,3 C 78 % 1001,4 hPa 0,0 l/m 0,0 km/h (0 Bft) NO 46 0 min 0,000 mm 0,0 UV-I 0 W/m -1,1 C 2,3 C 0,0 km/h (0 Bft)
07.03.2013 00:10 2,3 C 79 % 1001,5 hPa 0,0 l/m 0,2 km/h (0 Bft) NO 46 0 min 0,000 mm 0,0 UV-I 0 W/m -1,0 C 2,3 C 1,6 km/h (1 Bft)
07.03.2013 00:15 2,3 C 79 % 1001,4 hPa 0,0 l/m 0,0 km/h (0 Bft) NO 46 0 min 0,000 mm 0,0 UV-I 0 W/m -1,0 C 2,3 C 0,0 km/h (0 Bft)
07.03.2013 00:20 2,2 C 79 % 1001,5 hPa 0,0 l/m 0,0 km/h (0 Bft) NO 46 0 min 0,000 mm 0,0 UV-I 0 W/m -1,1 C 2,2 C 0,0 km/h (0 Bft)
07.03.2013 00:25 2,2 C 79 % 1001,5 hPa 0,0 l/m 0,0 km/h (0 Bft) NO 46 0 min 0,000 mm 0,0 UV-I 0 W/m -1,1 C 2,2 C 0,0 km/h (0 Bft)
07.03.2013 00:30 2,1 C 79 % 1001,4 hPa 0,0 l/m 0,0 km/h (0 Bft) NO 46 0 min 0,000 mm 0,0 UV-I 0 W/m -1,2 C 2,1 C 0,0 km/h (0 Bft)
07.03.2013 00:35 2,1 C 79 % 1001,3 hPa 0,0 l/m 0,0 km/h (0 Bft) NO 46 0 min 0,000 mm 0,0 UV-I 0 W/m -1,2 C 2,1 C 0,0 km/h (0 Bft)
07.03.2013 00:40 2,1 C 80 % 1001,4 hPa 0,0 l/m 0,0 km/h (0 Bft) NO 46 0 min 0,000 mm 0,0 UV-I 0 W/m -1,0 C 2,1 C 0,0 km/h (0 Bft)
07.03.2013 00:45 2,1 C 80 % 1001,3 hPa 0,0 l/m 0,0 km/h (0 Bft) NO 46 0 min 0,000 mm 0,0 UV-I 0 W/m -1,0 C 2,1 C 0,0 km/h (0 Bft)
07.03.2013 00:50 2,1 C 80 % 1001,3 hPa 0,0 l/m 0,0 km/h (0 Bft) NO 46 0 min 0,000 mm 0,0 UV-I 0 W/m -1,0 C 2,1 C 0,0 km/h (0 Bft)
07.03.2013 00:55 2,0 C 80 % 1001,3 hPa 0,0 l/m 0,0 km/h (0 Bft) NO 46 0 min 0,000 mm 0,0 UV-I 0 W/m -1,1 C 2,0 C 0,0 km/h (0 Bft)
07.03.2013 01:00 1,9 C 80 % 1001,3 hPa 0,0 l/m 0,0 km/h (0 Bft) NO 46 0 min 0,000 mm 0,0 UV-I 0 W/m -1,2 C 1,9 C 0,0 km/h (0 Bft)
07.03.2013 01:05 1,9 C 80 % 1001,2 hPa 0,0 l/m 0,0 km/h (0 Bft) NO 46 0 min 0,000 mm 0,0 UV-I 0 W/m -1,2 C 1,9 C 0,0 km/h (0 Bft)
07.03.2013 01:10 1,9 C 81 % 1001,2 hPa 0,0 l/m 0,0 km/h (0 Bft) NO 46 0 min 0,000 mm 0,0 UV-I 0 W/m -1,0 C 1,9 C 0,0 km/h (0 Bft)
07.03.2013 01:15 1,9 C 81 % 1001,1 hPa 0,0 l/m 0,0 km/h (0 Bft) NO 46 0 min 0,000 mm 0,0 UV-I 0 W/m -1,0 C 1,9 C 0,0 km/h (0 Bft)
07.03.2013 01:20 1,9 C 80 % 1001,1 hPa 0,0 l/m 0,0 km/h (0 Bft) NO 46 0 min 0,000 mm 0,0 UV-I 0 W/m -1,2 C 1,9 C 0,0 km/h (0 Bft)
07.03.2013 01:25 1,9 C 80 % 1001,1 hPa 0,0 l/m 0,0 km/h (0 Bft) NO 46 0 min 0,000 mm 0,0 UV-I 0 W/m -1,2 C 1,9 C 0,0 km/h (0 Bft)
07.03.2013 01:30 1,9 C 81 % 1001,1 hPa 0,0 l/m 0,0 km/h (0 Bft) NO 46 0 min 0,000 mm 0,0 UV-I 0 W/m -1,0 C 1,9 C 0,0 km/h (0 Bft)
07.03.2013 01:35 1,9 C 81 % 1001,0 hPa 0,0 l/m 0,0 km/h (0 Bft) NO 46 0 min 0,000 mm 0,0 UV-I 0 W/m -1,0 C 1,9 C 0,0 km/h (0 Bft)
07.03.2013 01:40 1,9 C 81 % 1000,9 hPa 0,0 l/m 0,0 km/h (0 Bft) NO 46 0 min 0,000 mm 0,0 UV-I 0 W/m -1,0 C 1,9 C 0,0 km/h (0 Bft)
07.03.2013 01:45 1,8 C 81 % 1001,0 hPa 0,0 l/m 0,0 km/h (0 Bft) NO 46 0 min 0,000 mm 0,0 UV-I 0 W/m -1,1 C 1,8 C 0,0 km/h (0 Bft)
07.03.2013 01:50 1,8 C 81 % 1001,1 hPa 0,0 l/m 0,0 km/h (0 Bft) NO 46 0 min 0,000 mm 0,0 UV-I 0 W/m -1,1 C 1,8 C 0,0 km/h (0 Bft)
07.03.2013 01:55 1,8 C 81 % 1001,2 hPa 0,0 l/m 0,0 km/h (0 Bft) NO 46 0 min 0,000 mm 0,0 UV-I 0 W/m -1,1 C 1,8 C 0,0 km/h (0 Bft)
07.03.2013 02:00 1,8 C 81 % 1001,2 hPa 0,0 l/m 0,0 km/h (0 Bft) NO 46 0 min 0,000 mm 0,0 UV-I 0 W/m -1,1 C 1,8 C 0,0 km/h (0 Bft)
07.03.2013 02:05 1,9 C 81 % 1001,2 hPa 0,0 l/m 0,0 km/h (0 Bft) NO 46 0 min 0,000 mm 0,0 UV-I 0 W/m -1,0 C 1,9 C 0,0 km/h (0 Bft)
07.03.2013 02:10 1,9 C 81 % 1001,3 hPa 0,0 l/m 0,0 km/h (0 Bft) NO 46 0 min 0,000 mm 0,0 UV-I 0 W/m -1,0 C 1,9 C 0,0 km/h (0 Bft)
07.03.2013 02:15 1,9 C 81 % 1001,2 hPa 0,0 l/m 0,0 km/h (0 Bft) NO 46 0 min 0,000 mm 0,0 UV-I 0 W/m -1,0 C 1,9 C 0,0 km/h (0 Bft)
07.03.2013 02:20 1,9 C 81 % 1001,3 hPa 0,0 l/m 0,0 km/h (0 Bft) NO 46 0 min 0,000 mm 0,0 UV-I 0 W/m -1,0 C 1,9 C 0,0 km/h (0 Bft)
07.03.2013 02:25 2,0 C 81 % 1001,1 hPa 0,0 l/m 0,0 km/h (0 Bft) NO 46 0 min 0,000 mm 0,0 UV-I 0 W/m -0,9 C 2,0 C 0,0 km/h (0 Bft)
07.03.2013 02:30 2,0 C 81 % 1001,1 hPa 0,0 l/m 0,0 km/h (0 Bft) NO 46 0 min 0,000 mm 0,0 UV-I 0 W/m -0,9 C 2,0 C 0,0 km/h (0 Bft)
07.03.2013 02:35 2,0 C 81 % 1001,0 hPa 0,0 l/m 0,0 km/h (0 Bft) NO 46 0 min 0,000 mm 0,0 UV-I 0 W/m -0,9 C 2,0 C 0,0 km/h (0 Bft)
07.03.2013 02:40 2,0 C 82 % 1000,9 hPa 0,0 l/m 0,1 km/h (0 Bft) NO 46 0 min 0,000 mm 0,0 UV-I 0 W/m -0,7 C 2,0 C 1,6 km/h (1 Bft)
07.03.2013 02:45 2,1 C 82 % 1000,8 hPa 0,0 l/m 0,6 km/h (0 Bft) NO 46 0 min 0,000 mm 0,0 UV-I 0 W/m -0,6 C 2,1 C 3,2 km/h (1 Bft)
07.03.2013 02:50 2,1 C 83 % 1000,8 hPa 0,0 l/m 0,0 km/h (0 Bft) NO 46 0 min 0,000 mm 0,0 UV-I 0 W/m -0,5 C 2,1 C 1,6 km/h (1 Bft)
07.03.2013 02:55 2,2 C 82 % 1000,7 hPa 0,0 l/m 0,4 km/h (0 Bft) NO 46 0 min 0,000 mm 0,0 UV-I 0 W/m -0,5 C 2,2 C 3,2 km/h (1 Bft)
07.03.2013 03:00 2,3 C 82 % 1000,7 hPa 0,0 l/m 0,1 km/h (0 Bft) NO 46 0 min 0,000 mm 0,0 UV-I 0 W/m -0,4 C 2,3 C 1,6 km/h (1 Bft)
07.03.2013 03:05 2,4 C 81 % 1000,6 hPa 0,0 l/m 0,0 km/h (0 Bft) NO 46 0 min 0,000 mm 0,0 UV-I 0 W/m -0,5 C 2,4 C 0,0 km/h (0 Bft)
07.03.2013 03:10 2,5 C 81 % 1000,6 hPa 0,0 l/m 0,0 km/h (0 Bft) NO 46 0 min 0,000 mm 0,0 UV-I 0 W/m -0,4 C 2,5 C 0,0 km/h (0 Bft)
07.03.2013 03:15 2,6 C 80 % 1000,5 hPa 0,0 l/m 0,0 km/h (0 Bft) NO 46 0 min 0,000 mm 0,0 UV-I 0 W/m -0,5 C 2,6 C 0,0 km/h (0 Bft)
07.03.2013 03:20 2,8 C 80 % 1000,6 hPa 0,0 l/m 0,0 km/h (0 Bft) NO 46 0 min 0,000 mm 0,0 UV-I 0 W/m -0,3 C 2,8 C 0,0 km/h (0 Bft)
07.03.2013 03:25 2,8 C 79 % 1000,6 hPa 0,0 l/m 0,0 km/h (0 Bft) NO 46 0 min 0,000 mm 0,0 UV-I 0 W/m -0,5 C 2,8 C 0,0 km/h (0 Bft)
07.03.2013 03:30 2,8 C 79 % 1000,5 hPa 0,0 l/m 0,0 km/h (0 Bft) NO 46 0 min 0,000 mm 0,0 UV-I 0 W/m -0,5 C 2,8 C 0,0 km/h (0 Bft)
07.03.2013 03:35 2,8 C 78 % 1000,5 hPa 0,0 l/m 0,0 km/h (0 Bft) NO 46 0 min 0,000 mm 0,0 UV-I 0 W/m -0,6 C 2,8 C 0,0 km/h (0 Bft)
07.03.2013 03:40 2,8 C 79 % 1000,5 hPa 0,0 l/m 0,1 km/h (0 Bft) NO 47 0 min 0,000 mm 0,0 UV-I 0 W/m -0,5 C 2,8 C 1,6 km/h (1 Bft)
07.03.2013 03:45 2,7 C 79 % 1000,5 hPa 0,0 l/m 0,0 km/h (0 Bft) NO 47 0 min 0,000 mm 0,0 UV-I 0 W/m -0,6 C 2,7 C 0,0 km/h (0 Bft)
07.03.2013 03:50 2,7 C 79 % 1000,5 hPa 0,0 l/m 0,0 km/h (0 Bft) NO 47 0 min 0,000 mm 0,0 UV-I 0 W/m -0,6 C 2,7 C 0,0 km/h (0 Bft)
07.03.2013 03:55 2,7 C 80 % 1000,4 hPa 0,0 l/m 0,0 km/h (0 Bft) NO 47 0 min 0,000 mm 0,0 UV-I 0 W/m -0,4 C 2,7 C 0,0 km/h (0 Bft)
07.03.2013 04:00 2,6 C 80 % 1000,5 hPa 0,0 l/m 0,1 km/h (0 Bft) NO 47 0 min 0,000 mm 0,0 UV-I 0 W/m -0,5 C 2,6 C 1,6 km/h (1 Bft)
07.03.2013 04:05 2,4 C 80 % 1000,4 hPa 0,0 l/m 0,2 km/h (0 Bft) NO 47 0 min 0,000 mm 0,0 UV-I 0 W/m -0,7 C 2,4 C 1,6 km/h (1 Bft)
07.03.2013 04:10 2,3 C 81 % 1000,4 hPa 0,0 l/m 0,0 km/h (0 Bft) NO 47 0 min 0,000 mm 0,0 UV-I 0 W/m -0,6 C 2,3 C 0,0 km/h (0 Bft)
07.03.2013 04:15 2,3 C 81 % 1000,4 hPa 0,0 l/m 0,0 km/h (0 Bft) NO 47 0 min 0,000 mm 0,0 UV-I 0 W/m -0,6 C 2,3 C 0,0 km/h (0 Bft)
07.03.2013 04:20 2,4 C 81 % 1000,3 hPa 0,0 l/m 0,0 km/h (0 Bft) NO 47 0 min 0,000 mm 0,0 UV-I 0 W/m -0,5 C 2,4 C 0,0 km/h (0 Bft)
07.03.2013 04:25 2,4 C 81 % 1000,4 hPa 0,0 l/m 0,0 km/h (0 Bft) NO 47 0 min 0,000 mm 0,0 UV-I 0 W/m -0,5 C 2,4 C 0,0 km/h (0 Bft)
07.03.2013 04:30 2,4 C 81 % 1000,3 hPa 0,0 l/m 0,0 km/h (0 Bft) NO 46 0 min 0,000 mm 0,0 UV-I 0 W/m -0,5 C 2,4 C 0,0 km/h (0 Bft)
07.03.2013 04:35 2,4 C 81 % 1000,4 hPa 0,0 l/m 0,0 km/h (0 Bft) NO 47 0 min 0,000 mm 0,0 UV-I 0 W/m -0,5 C 2,4 C 0,0 km/h (0 Bft)
07.03.2013 04:40 2,5 C 81 % 1000,4 hPa 0,0 l/m 0,0 km/h (0 Bft) NO 47 0 min 0,000 mm 0,0 UV-I 0 W/m -0,4 C 2,5 C 1,6 km/h (1 Bft)
07.03.2013 04:45 2,6 C 81 % 1000,4 hPa 0,0 l/m 0,0 km/h (0 Bft) NO 47 0 min 0,000 mm 0,0 UV-I 0 W/m -0,3 C 2,6 C 0,0 km/h (0 Bft)
07.03.2013 04:50 2,6 C 81 % 1000,4 hPa 0,0 l/m 0,0 km/h (0 Bft) NO 47 0 min 0,000 mm 0,0 UV-I 0 W/m -0,3 C 2,6 C 0,0 km/h (0 Bft)
07.03.2013 04:55 2,7 C 81 % 1000,4 hPa 0,0 l/m 0,0 km/h (0 Bft) NO 47 0 min 0,000 mm 0,0 UV-I 0 W/m -0,2 C 2,7 C 0,0 km/h (0 Bft)
07.03.2013 05:00 2,7 C 81 % 1000,3 hPa 0,0 l/m 0,0 km/h (0 Bft) NO 47 0 min 0,000 mm 0,0 UV-I 0 W/m -0,2 C 2,7 C 0,0 km/h (0 Bft)
07.03.2013 05:05 2,7 C 80 % 1000,2 hPa 0,0 l/m 0,1 km/h (0 Bft) NO 47 0 min 0,000 mm 0,0 UV-I 0 W/m -0,4 C 2,7 C 1,6 km/h (1 Bft)
07.03.2013 05:10 2,8 C 80 % 1000,1 hPa 0,0 l/m 0,1 km/h (0 Bft) NO 47 0 min 0,000 mm 0,0 UV-I 0 W/m -0,3 C 2,8 C 1,6 km/h (1 Bft)
07.03.2013 05:15 2,9 C 80 % 1000,1 hPa 0,0 l/m 0,1 km/h (0 Bft) NO 47 0 min 0,000 mm 0,0 UV-I 0 W/m -0,2 C 2,9 C 1,6 km/h (1 Bft)
07.03.2013 05:20 2,8 C 80 % 1000,4 hPa 0,0 l/m 0,5 km/h (0 Bft) NO 53 0 min 0,000 mm 0,0 UV-I 0 W/m -0,3 C 2,8 C 1,6 km/h (1 Bft)
07.03.2013 05:25 2,8 C 81 % 1000,2 hPa 0,0 l/m 1,7 km/h (1 Bft) NO 53 0 min 0,000 mm 0,0 UV-I 0 W/m -0,1 C 2,8 C 4,8 km/h (1 Bft)
07.03.2013 05:30 2,8 C 81 % 1000,2 hPa 0,0 l/m 0,8 km/h (0 Bft) S-SO 147 0 min 0,000 mm 0,0 UV-I 0 W/m -0,1 C 2,8 C 3,2 km/h (1 Bft)
07.03.2013 05:35 2,8 C 81 % 1000,0 hPa 0,0 l/m 0,2 km/h (0 Bft) S-SO 147 0 min 0,000 mm 0,0 UV-I 0 W/m -0,1 C 2,8 C 1,6 km/h (1 Bft)
07.03.2013 05:40 2,8 C 81 % 1000,2 hPa 0,0 l/m 3,2 km/h (1 Bft) W-SW 249 0 min 0,000 mm 0,0 UV-I 0 W/m -0,1 C 2,8 C 8,0 km/h (2 Bft)
07.03.2013 05:45 2,6 C 81 % 1000,3 hPa 0,0 l/m 1,3 km/h (1 Bft) W 263 0 min 0,000 mm 0,0 UV-I 0 W/m -0,3 C 2,6 C 6,4 km/h (2 Bft)
07.03.2013 05:50 2,6 C 81 % 1000,3 hPa 0,0 l/m 0,6 km/h (0 Bft) W 263 0 min 0,000 mm 0,0 UV-I 0 W/m -0,3 C 2,6 C 3,2 km/h (1 Bft)
07.03.2013 05:55 2,6 C 82 % 1000,3 hPa 0,0 l/m 0,3 km/h (0 Bft) W 263 0 min 0,000 mm 0,0 UV-I 0 W/m -0,2 C 2,6 C 3,2 km/h (1 Bft)
07.03.2013 06:00 2,7 C 82 % 1000,2 hPa 0,0 l/m 0,6 km/h (0 Bft) W 263 0 min 0,000 mm 0,0 UV-I 0 W/m -0,1 C 2,7 C 3,2 km/h (1 Bft)
07.03.2013 06:05 2,8 C 82 % 1000,2 hPa 0,0 l/m 0,4 km/h (0 Bft) W 263 0 min 0,000 mm 0,0 UV-I 0 W/m 0,0 C 2,8 C 3,2 km/h (1 Bft)
07.03.2013 06:10 2,9 C 82 % 1000,0 hPa 0,0 l/m 0,0 km/h (0 Bft) W 263 0 min 0,000 mm 0,0 UV-I 0 W/m 0,1 C 2,9 C 0,0 km/h (0 Bft)
07.03.2013 06:15 3,0 C 81 % 1000,1 hPa 0,0 l/m 0,8 km/h (0 Bft) W 259 0 min 0,000 mm 0,0 UV-I 0 W/m 0,1 C 3,0 C 3,2 km/h (1 Bft)
07.03.2013 06:20 2,9 C 81 % 1000,1 hPa 0,0 l/m 0,6 km/h (0 Bft) W 259 0 min 0,000 mm 0,0 UV-I 0 W/m -0,0 C 2,9 C 3,2 km/h (1 Bft)
07.03.2013 06:25 2,9 C 81 % 1000,3 hPa 0,0 l/m 0,1 km/h (0 Bft) W 259 0 min 0,000 mm 0,0 UV-I 0 W/m -0,0 C 2,9 C 1,6 km/h (1 Bft)
07.03.2013 06:30 2,9 C 80 % 1000,3 hPa 0,0 l/m 0,0 km/h (0 Bft) W 259 0 min 0,000 mm 0,0 UV-I 0 W/m -0,2 C 2,9 C 1,6 km/h (1 Bft)
07.03.2013 06:35 3,0 C 81 % 1000,1 hPa 0,0 l/m 2,0 km/h (1 Bft) W 260 0 min 0,000 mm 0,0 UV-I 0 W/m 0,1 C 3,0 C 3,2 km/h (1 Bft)
07.03.2013 06:40 3,1 C 82 % 1000,2 hPa 0,0 l/m 0,5 km/h (0 Bft) W 260 0 min 0,000 mm 0,0 UV-I 0 W/m 0,3 C 3,1 C 3,2 km/h (1 Bft)
07.03.2013 06:45 3,1 C 81 % 1000,1 hPa 0,0 l/m 0,0 km/h (0 Bft) W 260 0 min 0,000 mm 0,0 UV-I 0 W/m 0,2 C 3,1 C 0,0 km/h (0 Bft)
07.03.2013 06:50 3,1 C 81 % 1000,2 hPa 0,0 l/m 0,2 km/h (0 Bft) W 260 0 min 0,000 mm 0,0 UV-I 0 W/m 0,2 C 3,1 C 3,2 km/h (1 Bft)
07.03.2013 06:55 3,1 C 81 % 1000,4 hPa 0,0 l/m 0,0 km/h (0 Bft) W 260 0 min 0,000 mm 0,0 UV-I 0 W/m 0,2 C 3,1 C 1,6 km/h (1 Bft)
07.03.2013 07:00 3,1 C 81 % 1000,3 hPa 0,0 l/m 0,0 km/h (0 Bft) W 260 0 min 0,000 mm 0,0 UV-I 0 W/m 0,2 C 3,1 C 0,0 km/h (0 Bft)
07.03.2013 07:05 3,1 C 81 % 1000,2 hPa 0,0 l/m 0,0 km/h (0 Bft) W 260 0 min 0,000 mm 0,0 UV-I 0 W/m 0,2 C 3,1 C 1,6 km/h (1 Bft)
07.03.2013 07:10 3,1 C 81 % 1000,2 hPa 0,0 l/m 0,0 km/h (0 Bft) W 260 0 min 0,000 mm 0,0 UV-I 5 W/m 0,2 C 3,1 C 0,0 km/h (0 Bft)
07.03.2013 07:15 3,2 C 81 % 1000,3 hPa 0,0 l/m 0,7 km/h (0 Bft) W 260 0 min 0,000 mm 0,0 UV-I 9 W/m 0,3 C 3,2 C 3,2 km/h (1 Bft)
07.03.2013 07:20 3,1 C 81 % 1000,3 hPa 0,0 l/m 0,0 km/h (0 Bft) W 260 0 min 0,000 mm 0,0 UV-I 14 W/m 0,2 C 3,1 C 0,0 km/h (0 Bft)
07.03.2013 07:25 3,1 C 81 % 1000,3 hPa 0,0 l/m 0,0 km/h (0 Bft) W 260 0 min 0,000 mm 0,0 UV-I 14 W/m 0,2 C 3,1 C 0,0 km/h (0 Bft)
07.03.2013 07:30 3,1 C 82 % 1000,4 hPa 0,0 l/m 0,0 km/h (0 Bft) W 260 0 min 0,000 mm 0,0 UV-I 16 W/m 0,3 C 3,1 C 0,0 km/h (0 Bft)
07.03.2013 07:35 3,1 C 82 % 1000,3 hPa 0,0 l/m 0,0 km/h (0 Bft) W 260 0 min 0,000 mm 0,0 UV-I 16 W/m 0,3 C 3,1 C 0,0 km/h (0 Bft)
07.03.2013 07:40 3,2 C 82 % 1000,4 hPa 0,0 l/m 0,0 km/h (0 Bft) W 260 0 min 0,000 mm 0,0 UV-I 18 W/m 0,4 C 3,2 C 1,6 km/h (1 Bft)
07.03.2013 07:45 3,2 C 81 % 1000,5 hPa 0,0 l/m 0,0 km/h (0 Bft) W 260 0 min 0,000 mm 0,0 UV-I 21 W/m 0,3 C 3,2 C 1,6 km/h (1 Bft)
07.03.2013 07:50 3,3 C 81 % 1000,4 hPa 0,0 l/m 0,0 km/h (0 Bft) W 260 0 min 0,000 mm 0,0 UV-I 23 W/m 0,4 C 3,3 C 0,0 km/h (0 Bft)
07.03.2013 07:55 3,3 C 82 % 1000,4 hPa 0,0 l/m 0,0 km/h (0 Bft) W 260 0 min 0,000 mm 0,0 UV-I 23 W/m 0,5 C 3,3 C 0,0 km/h (0 Bft)
07.03.2013 08:00 3,3 C 82 % 1000,3 hPa 0,0 l/m 0,0 km/h (0 Bft) W 260 0 min 0,000 mm 0,0 UV-I 25 W/m 0,5 C 3,3 C 0,0 km/h (0 Bft)
07.03.2013 08:05 3,4 C 82 % 1000,3 hPa 0,0 l/m 0,0 km/h (0 Bft) W 260 0 min 0,000 mm 0,0 UV-I 30 W/m 0,6 C 3,4 C 1,6 km/h (1 Bft)
07.03.2013 08:10 3,4 C 82 % 1000,3 hPa 0,0 l/m 0,0 km/h (0 Bft) W 260 0 min 0,000 mm 0,0 UV-I 35 W/m 0,6 C 3,4 C 0,0 km/h (0 Bft)
07.03.2013 08:15 3,5 C 82 % 1000,3 hPa 0,0 l/m 0,0 km/h (0 Bft) W 260 0 min 0,000 mm 0,0 UV-I 44 W/m 0,7 C 3,5 C 0,0 km/h (0 Bft)
07.03.2013 08:20 3,6 C 82 % 1000,3 hPa 0,0 l/m 0,0 km/h (0 Bft) W 260 0 min 0,000 mm 0,0 UV-I 51 W/m 0,8 C 3,6 C 0,0 km/h (0 Bft)
07.03.2013 08:25 3,7 C 81 % 1000,4 hPa 0,0 l/m 0,1 km/h (0 Bft) W 260 0 min 0,000 mm 0,0 UV-I 51 W/m 0,7 C 3,7 C 1,6 km/h (1 Bft)
07.03.2013 08:30 3,7 C 80 % 1000,5 hPa 0,0 l/m 0,0 km/h (0 Bft) W 260 0 min 0,000 mm 0,0 UV-I 51 W/m 0,6 C 3,7 C 0,0 km/h (0 Bft)
07.03.2013 08:35 3,9 C 79 % 1000,6 hPa 0,0 l/m 0,0 km/h (0 Bft) W 260 0 min 0,000 mm 0,0 UV-I 49 W/m 0,6 C 3,9 C 0,0 km/h (0 Bft)
07.03.2013 08:40 4,1 C 78 % 1000,7 hPa 0,0 l/m 0,0 km/h (0 Bft) W 260 0 min 0,000 mm 0,0 UV-I 47 W/m 0,6 C 4,1 C 1,6 km/h (1 Bft)
07.03.2013 08:45 4,2 C 79 % 1000,6 hPa 0,0 l/m 0,5 km/h (0 Bft) W 260 0 min 0,000 mm 0,0 UV-I 51 W/m 0,9 C 4,2 C 3,2 km/h (1 Bft)
07.03.2013 08:50 4,4 C 79 % 1000,7 hPa 0,0 l/m 0,0 km/h (0 Bft) W 260 0 min 0,000 mm 0,0 UV-I 62 W/m 1,1 C 4,4 C 1,6 km/h (1 Bft)
07.03.2013 08:55 4,6 C 79 % 1000,8 hPa 0,0 l/m 0,2 km/h (0 Bft) W 260 0 min 0,000 mm 0,0 UV-I 63 W/m 1,3 C 4,6 C 3,2 km/h (1 Bft)
07.03.2013 09:00 4,7 C 79 % 1000,8 hPa 0,0 l/m 0,0 km/h (0 Bft) W 260 0 min 0,000 mm 0,0 UV-I 65 W/m 1,4 C 4,7 C 1,6 km/h (1 Bft)
07.03.2013 09:05 4,8 C 78 % 1000,8 hPa 0,0 l/m 0,0 km/h (0 Bft) W 260 0 min 0,025 mm 0,0 UV-I 67 W/m 1,3 C 4,8 C 1,6 km/h (1 Bft)
07.03.2013 09:10 4,8 C 79 % 1000,8 hPa 0,0 l/m 0,1 km/h (0 Bft) W 260 0 min 0,000 mm 0,0 UV-I 72 W/m 1,5 C 4,8 C 1,6 km/h (1 Bft)
07.03.2013 09:15 4,7 C 79 % 1000,8 hPa 0,0 l/m 0,1 km/h (0 Bft) W 260 0 min 0,000 mm 0,0 UV-I 83 W/m 1,4 C 4,7 C 1,6 km/h (1 Bft)
07.03.2013 09:20 4,8 C 78 % 1000,7 hPa 0,0 l/m 0,0 km/h (0 Bft) W 260 0 min 0,000 mm 0,0 UV-I 86 W/m 1,3 C 4,8 C 0,0 km/h (0 Bft)
07.03.2013 09:25 4,9 C 78 % 1000,6 hPa 0,0 l/m 1,3 km/h (1 Bft) W 260 0 min 0,000 mm 0,5 UV-I 88 W/m 1,4 C 4,9 C 4,8 km/h (1 Bft)
07.03.2013 09:30 5,0 C 78 % 1000,6 hPa 0,0 l/m 0,3 km/h (0 Bft) W 260 0 min 0,000 mm 0,5 UV-I 95 W/m 1,5 C 5,0 C 1,6 km/h (1 Bft)
07.03.2013 09:35 5,1 C 79 % 1000,6 hPa 0,0 l/m 0,0 km/h (0 Bft) W 260 0 min 0,000 mm 0,5 UV-I 109 W/m 1,8 C 5,1 C 0,0 km/h (0 Bft)
07.03.2013 09:40 5,2 C 78 % 1000,6 hPa 0,0 l/m 0,0 km/h (0 Bft) W 260 0 min 0,000 mm 0,5 UV-I 113 W/m 1,7 C 5,2 C 1,6 km/h (1 Bft)
07.03.2013 09:45 5,3 C 77 % 1000,8 hPa 0,0 l/m 0,1 km/h (0 Bft) W 260 0 min 0,000 mm 0,5 UV-I 120 W/m 1,6 C 5,3 C 1,6 km/h (1 Bft)
07.03.2013 09:50 5,4 C 76 % 1000,8 hPa 0,0 l/m 0,0 km/h (0 Bft) W 260 0 min 0,000 mm 0,6 UV-I 134 W/m 1,5 C 5,4 C 0,0 km/h (0 Bft)
07.03.2013 09:55 5,6 C 76 % 1000,9 hPa 0,0 l/m 0,0 km/h (0 Bft) W 260 0 min 0,000 mm 0,6 UV-I 137 W/m 1,7 C 5,6 C 0,0 km/h (0 Bft)
07.03.2013 10:00 5,8 C 75 % 1000,9 hPa 0,0 l/m 0,0 km/h (0 Bft) W 260 0 min 0,000 mm 0,6 UV-I 137 W/m 1,7 C 5,8 C 0,0 km/h (0 Bft)
07.03.2013 10:05 6,0 C 75 % 1000,9 hPa 0,0 l/m 0,0 km/h (0 Bft) W 260 0 min 0,051 mm 0,6 UV-I 127 W/m 1,9 C 6,0 C 1,6 km/h (1 Bft)
07.03.2013 10:10 6,4 C 74 % 1000,8 hPa 0,0 l/m 1,4 km/h (1 Bft) W 261 0 min 0,000 mm 0,6 UV-I 123 W/m 2,1 C 6,4 C 3,2 km/h (1 Bft)
07.03.2013 10:15 6,8 C 73 % 1000,8 hPa 0,0 l/m 0,6 km/h (0 Bft) S-SO 153 0 min 0,000 mm 0,7 UV-I 153 W/m 2,3 C 6,8 C 3,2 km/h (1 Bft)
07.03.2013 10:20 7,2 C 72 % 1000,8 hPa 0,0 l/m 0,0 km/h (0 Bft) S-SO 153 0 min 0,000 mm 0,8 UV-I 188 W/m 2,5 C 7,2 C 1,6 km/h (1 Bft)
07.03.2013 10:25 7,5 C 69 % 1000,8 hPa 0,0 l/m 1,0 km/h (0 Bft) O-SO 112 0 min 0,000 mm 0,9 UV-I 220 W/m 2,2 C 7,5 C 4,8 km/h (1 Bft)
07.03.2013 10:30 7,9 C 68 % 1000,8 hPa 0,0 l/m 2,5 km/h (1 Bft) O 101 0 min 0,000 mm 1,0 UV-I 248 W/m 2,4 C 7,9 C 4,8 km/h (1 Bft)
07.03.2013 10:35 8,4 C 66 % 1000,8 hPa 0,0 l/m 3,2 km/h (1 Bft) O-NO 59 5 min 0,000 mm 1,1 UV-I 279 W/m 2,4 C 8,4 C 8,0 km/h (2 Bft)
07.03.2013 10:39 8,7 C 65 % 1000,7 hPa 0,0 l/m 4,8 km/h (1 Bft) O-NO 58 4 min 0,000 mm 1,2 UV-I 315 W/m 2,5 C 8,7 C 9,7 km/h (2 Bft)
07.03.2013 10:40 8,9 C 65 % 1000,7 hPa 0,0 l/m 0,3 km/h (0 Bft) O-NO 58 1 min 0,000 mm 1,2 UV-I 332 W/m 2,7 C 8,9 C 1,6 km/h (1 Bft)
07.03.2013 10:45 9,3 C 63 % 1000,6 hPa 0,0 l/m 3,7 km/h (1 Bft) O-NO 58 5 min 0,000 mm 1,3 UV-I 320 W/m 2,6 C 9,3 C 11,3 km/h (2 Bft)
07.03.2013 10:50 9,3 C 62 % 1000,6 hPa 0,0 l/m 1,9 km/h (1 Bft) O 88 0 min 0,000 mm 1,2 UV-I 260 W/m 2,4 C 9,3 C 4,8 km/h (1 Bft)
07.03.2013 10:55 9,2 C 62 % 1000,6 hPa 0,0 l/m 4,0 km/h (1 Bft) O-SO 117 0 min 0,000 mm 1,1 UV-I 223 W/m 2,3 C 9,2 C 9,7 km/h (2 Bft)
07.03.2013 11:00 9,1 C 62 % 1000,7 hPa 0,0 l/m 3,6 km/h (1 Bft) SO 144 0 min 0,102 mm 1,1 UV-I 197 W/m 2,2 C 9,1 C 4,8 km/h (1 Bft)
07.03.2013 11:05 9,2 C 61 % 1000,7 hPa 0,0 l/m 2,6 km/h (1 Bft) O-NO 61 0 min 0,000 mm 1,1 UV-I 207 W/m 2,1 C 9,2 C 6,4 km/h (2 Bft)
07.03.2013 11:10 9,5 C 59 % 1000,7 hPa 0,0 l/m 2,5 km/h (1 Bft) O-NO 62 0 min 0,000 mm 1,1 UV-I 223 W/m 1,9 C 9,5 C 4,8 km/h (1 Bft)
07.03.2013 11:15 9,7 C 59 % 1000,7 hPa 0,0 l/m 3,0 km/h (1 Bft) O-NO 63 0 min 0,000 mm 1,2 UV-I 236 W/m 2,1 C 9,7 C 6,4 km/h (2 Bft)
07.03.2013 11:20 10,2 C 60 % 1000,7 hPa 0,0 l/m 1,9 km/h (1 Bft) O-NO 63 0 min 0,000 mm 1,2 UV-I 246 W/m 2,8 C 10,2 C 4,8 km/h (1 Bft)
07.03.2013 11:25 9,9 C 58 % 1000,6 hPa 0,0 l/m 2,4 km/h (1 Bft) O-SO 109 0 min 0,000 mm 1,3 UV-I 272 W/m 2,0 C 9,9 C 6,4 km/h (2 Bft)
07.03.2013 11:30 10,0 C 58 % 1000,6 hPa 0,0 l/m 3,5 km/h (1 Bft) NO 44 0 min 0,000 mm 1,4 UV-I 285 W/m 2,1 C 10,0 C 6,4 km/h (2 Bft)
07.03.2013 11:35 10,5 C 57 % 1000,6 hPa 0,0 l/m 1,5 km/h (1 Bft) O-SO 104 5 min 0,000 mm 1,4 UV-I 322 W/m 2,3 C 10,5 C 6,4 km/h (2 Bft)
07.03.2013 11:40 10,1 C 57 % 1000,6 hPa 0,0 l/m 2,3 km/h (1 Bft) O-SO 102 5 min 0,000 mm 1,6 UV-I 348 W/m 2,0 C 10,1 C 4,8 km/h (1 Bft)
07.03.2013 11:45 10,2 C 56 % 1000,6 hPa 0,0 l/m 0,7 km/h (0 Bft) O-SO 102 5 min 0,000 mm 1,5 UV-I 309 W/m 1,8 C 10,2 C 3,2 km/h (1 Bft)
07.03.2013 11:50 10,7 C 55 % 1000,6 hPa 0,0 l/m 0,6 km/h (0 Bft) O 101 0 min 0,000 mm 1,4 UV-I 264 W/m 2,0 C 10,7 C 3,2 km/h (1 Bft)
07.03.2013 11:55 11,0 C 55 % 1000,6 hPa 0,0 l/m 3,0 km/h (1 Bft) O 96 0 min 0,000 mm 1,3 UV-I 237 W/m 2,3 C 11,0 C 6,4 km/h (2 Bft)
07.03.2013 12:00 10,8 C 56 % 1000,6 hPa 0,0 l/m 2,8 km/h (1 Bft) O-NO 65 0 min 0,000 mm 1,1 UV-I 195 W/m 2,4 C 10,8 C 8,0 km/h (2 Bft)
07.03.2013 12:05 10,8 C 55 % 1000,7 hPa 0,0 l/m 1,7 km/h (1 Bft) O-SO 113 0 min 0,127 mm 1,0 UV-I 169 W/m 2,1 C 10,8 C 4,8 km/h (1 Bft)
07.03.2013 12:10 10,8 C 56 % 1000,7 hPa 0,0 l/m 2,4 km/h (1 Bft) O-NO 57 0 min 0,000 mm 1,0 UV-I 171 W/m 2,4 C 10,8 C 6,4 km/h (2 Bft)
07.03.2013 12:15 10,9 C 55 % 1000,7 hPa 0,0 l/m 2,2 km/h (1 Bft) O-NO 57 0 min 0,000 mm 1,0 UV-I 188 W/m 2,2 C 10,9 C 6,4 km/h (2 Bft)
07.03.2013 12:20 10,9 C 54 % 1000,6 hPa 0,0 l/m 1,7 km/h (1 Bft) O-NO 59 0 min 0,000 mm 1,2 UV-I 221 W/m 2,0 C 10,9 C 6,4 km/h (2 Bft)
07.03.2013 12:25 10,9 C 55 % 1000,6 hPa 0,0 l/m 0,0 km/h (0 Bft) O-NO 59 0 min 0,000 mm 1,1 UV-I 221 W/m 2,2 C 10,9 C 1,6 km/h (1 Bft)
07.03.2013 12:30 10,9 C 56 % 1000,6 hPa 0,0 l/m 0,4 km/h (0 Bft) O 80 0 min 0,000 mm 1,1 UV-I 218 W/m 2,5 C 10,9 C 3,2 km/h (1 Bft)
07.03.2013 12:35 11,1 C 54 % 1000,5 hPa 0,0 l/m 0,9 km/h (0 Bft) O 86 0 min 0,000 mm 1,2 UV-I 230 W/m 2,2 C 11,1 C 4,8 km/h (1 Bft)
07.03.2013 12:40 11,1 C 55 % 1000,5 hPa 0,0 l/m 2,4 km/h (1 Bft) NO 55 0 min 0,000 mm 1,2 UV-I 221 W/m 2,4 C 11,1 C 6,4 km/h (2 Bft)
07.03.2013 12:45 11,2 C 54 % 1000,5 hPa 0,0 l/m 2,6 km/h (1 Bft) O-NO 67 0 min 0,000 mm 1,2 UV-I 218 W/m 2,2 C 11,2 C 4,8 km/h (1 Bft)
07.03.2013 12:50 11,3 C 55 % 1000,5 hPa 0,0 l/m 0,2 km/h (0 Bft) O-NO 66 0 min 0,000 mm 1,1 UV-I 220 W/m 2,6 C 11,3 C 1,6 km/h (1 Bft)
07.03.2013 12:55 11,4 C 54 % 1000,6 hPa 0,0 l/m 0,5 km/h (0 Bft) O 89 0 min 0,000 mm 1,1 UV-I 214 W/m 2,4 C 11,4 C 4,8 km/h (1 Bft)
07.03.2013 13:00 11,4 C 55 % 1000,5 hPa 0,0 l/m 1,9 km/h (1 Bft) O 89 0 min 0,000 mm 1,1 UV-I 211 W/m 2,7 C 11,4 C 4,8 km/h (1 Bft)
07.03.2013 13:05 11,3 C 54 % 1000,5 hPa 0,0 l/m 0,9 km/h (0 Bft) O 90 0 min 0,101 mm 1,1 UV-I 202 W/m 2,3 C 11,3 C 4,8 km/h (1 Bft)
07.03.2013 13:10 11,2 C 55 % 1000,5 hPa 0,0 l/m 3,1 km/h (1 Bft) O 93 0 min 0,000 mm 1,0 UV-I 176 W/m 2,5 C 11,2 C 8,0 km/h (2 Bft)
07.03.2013 13:15 11,1 C 55 % 1000,4 hPa 0,0 l/m 2,3 km/h (1 Bft) O-NO 63 0 min 0,000 mm 1,0 UV-I 176 W/m 2,4 C 11,1 C 6,4 km/h (2 Bft)
07.03.2013 13:20 11,3 C 56 % 1000,4 hPa 0,0 l/m 1,9 km/h (1 Bft) NO 50 0 min 0,000 mm 1,0 UV-I 181 W/m 2,8 C 11,3 C 6,4 km/h (2 Bft)
07.03.2013 13:25 11,5 C 54 % 1000,4 hPa 0,0 l/m 2,2 km/h (1 Bft) O 99 0 min 0,000 mm 1,0 UV-I 200 W/m 2,5 C 11,5 C 8,0 km/h (2 Bft)
07.03.2013 13:30 11,4 C 55 % 1000,4 hPa 0,0 l/m 2,1 km/h (1 Bft) O 91 0 min 0,000 mm 1,1 UV-I 220 W/m 2,7 C 11,4 C 4,8 km/h (1 Bft)
07.03.2013 13:35 11,7 C 54 % 1000,3 hPa 0,0 l/m 2,5 km/h (1 Bft) O-SO 109 0 min 0,000 mm 1,3 UV-I 262 W/m 2,7 C 11,7 C 4,8 km/h (1 Bft)
07.03.2013 13:40 11,6 C 54 % 1000,3 hPa 0,0 l/m 2,8 km/h (1 Bft) O 95 0 min 0,000 mm 1,3 UV-I 262 W/m 2,6 C 11,6 C 8,0 km/h (2 Bft)
07.03.2013 13:45 11,4 C 54 % 1000,3 hPa 0,0 l/m 3,1 km/h (1 Bft) O 101 0 min 0,000 mm 1,3 UV-I 253 W/m 2,4 C 11,4 C 6,4 km/h (2 Bft)
07.03.2013 13:50 11,3 C 55 % 1000,3 hPa 0,0 l/m 2,9 km/h (1 Bft) O-NO 78 0 min 0,000 mm 1,2 UV-I 239 W/m 2,6 C 11,3 C 4,8 km/h (1 Bft)
07.03.2013 13:55 11,4 C 55 % 1000,1 hPa 0,0 l/m 2,8 km/h (1 Bft) O-NO 75 0 min 0,000 mm 1,1 UV-I 221 W/m 2,7 C 11,4 C 8,0 km/h (2 Bft)
07.03.2013 14:00 12,1 C 54 % 1000,2 hPa 0,0 l/m 0,9 km/h (0 Bft) O-NO 75 0 min 0,000 mm 1,1 UV-I 225 W/m 3,1 C 12,1 C 3,2 km/h (1 Bft)
07.03.2013 14:05 12,1 C 52 % 1000,2 hPa 0,0 l/m 2,4 km/h (1 Bft) O-NO 76 0 min 0,127 mm 1,1 UV-I 241 W/m 2,5 C 12,1 C 4,8 km/h (1 Bft)
07.03.2013 14:10 12,4 C 53 % 1000,2 hPa 0,0 l/m 0,8 km/h (0 Bft) O-NO 76 0 min 0,000 mm 1,1 UV-I 246 W/m 3,1 C 12,4 C 3,2 km/h (1 Bft)
07.03.2013 14:15 12,1 C 53 % 1000,2 hPa 0,0 l/m 1,6 km/h (1 Bft) O-NO 76 0 min 0,000 mm 1,1 UV-I 229 W/m 2,8 C 12,1 C 4,8 km/h (1 Bft)
07.03.2013 14:20 12,0 C 52 % 1000,2 hPa 0,0 l/m 1,8 km/h (1 Bft) S-SO 162 0 min 0,000 mm 1,1 UV-I 223 W/m 2,5 C 12,0 C 6,4 km/h (2 Bft)
07.03.2013 14:25 12,1 C 52 % 1000,1 hPa 0,0 l/m 2,9 km/h (1 Bft) O-NO 76 0 min 0,000 mm 1,0 UV-I 204 W/m 2,5 C 12,1 C 8,0 km/h (2 Bft)
07.03.2013 14:30 12,1 C 53 % 1000,2 hPa 0,0 l/m 2,3 km/h (1 Bft) O-NO 76 0 min 0,000 mm 0,9 UV-I 193 W/m 2,8 C 12,1 C 6,4 km/h (2 Bft)
07.03.2013 14:35 12,2 C 54 % 1000,1 hPa 0,0 l/m 0,9 km/h (0 Bft) O-NO 75 0 min 0,000 mm 0,9 UV-I 188 W/m 3,2 C 12,2 C 4,8 km/h (1 Bft)
07.03.2013 14:40 12,4 C 52 % 1000,2 hPa 0,0 l/m 1,1 km/h (1 Bft) O-NO 76 0 min 0,000 mm 0,8 UV-I 183 W/m 2,8 C 12,4 C 4,8 km/h (1 Bft)
07.03.2013 14:45 12,6 C 52 % 1000,1 hPa 0,0 l/m 3,0 km/h (1 Bft) NO 55 0 min 0,000 mm 0,8 UV-I 188 W/m 3,0 C 12,6 C 6,4 km/h (2 Bft)
07.03.2013 14:50 12,6 C 52 % 1000,1 hPa 0,0 l/m 3,3 km/h (1 Bft) O-NO 59 0 min 0,000 mm 0,9 UV-I 214 W/m 3,0 C 12,6 C 8,0 km/h (2 Bft)
07.03.2013 14:55 12,6 C 51 % 1000,0 hPa 0,0 l/m 5,1 km/h (1 Bft) O-NO 61 0 min 0,000 mm 0,9 UV-I 225 W/m 2,7 C 12,6 C 11,3 km/h (2 Bft)
07.03.2013 15:00 12,6 C 52 % 1000,0 hPa 0,0 l/m 4,2 km/h (1 Bft) O-NO 63 5 min 0,000 mm 0,9 UV-I 253 W/m 3,0 C 12,6 C 8,0 km/h (2 Bft)
07.03.2013 15:05 12,7 C 52 % 999,9 hPa 0,0 l/m 2,9 km/h (1 Bft) NO 55 5 min 0,127 mm 0,9 UV-I 255 W/m 3,1 C 12,7 C 6,4 km/h (2 Bft)
07.03.2013 15:10 12,8 C 50 % 999,9 hPa 0,0 l/m 3,3 km/h (1 Bft) NO 50 5 min 0,000 mm 1,0 UV-I 287 W/m 2,6 C 12,8 C 6,4 km/h (2 Bft)
07.03.2013 15:15 13,2 C 50 % 999,8 hPa 0,0 l/m 3,0 km/h (1 Bft) O-NO 58 5 min 0,000 mm 1,0 UV-I 294 W/m 3,0 C 13,2 C 6,4 km/h (2 Bft)
07.03.2013 15:20 13,3 C 48 % 999,9 hPa 0,0 l/m 1,9 km/h (1 Bft) O 94 5 min 0,000 mm 1,0 UV-I 322 W/m 2,5 C 13,3 C 8,0 km/h (2 Bft)
07.03.2013 15:25 12,9 C 49 % 999,9 hPa 0,0 l/m 4,3 km/h (1 Bft) O-NO 59 5 min 0,000 mm 1,0 UV-I 448 W/m 2,5 C 12,9 C 8,0 km/h (2 Bft)
07.03.2013 15:30 13,4 C 49 % 999,9 hPa 0,0 l/m 4,4 km/h (1 Bft) O-NO 75 5 min 0,000 mm 0,9 UV-I 265 W/m 2,9 C 13,4 C 12,9 km/h (3 Bft)
07.03.2013 15:35 13,6 C 48 % 999,9 hPa 0,0 l/m 3,3 km/h (1 Bft) O-NO 59 5 min 0,000 mm 0,9 UV-I 311 W/m 2,8 C 13,6 C 8,0 km/h (2 Bft)
07.03.2013 15:40 13,6 C 47 % 999,9 hPa 0,0 l/m 1,9 km/h (1 Bft) NO 55 5 min 0,000 mm 0,8 UV-I 221 W/m 2,5 C 13,6 C 6,4 km/h (2 Bft)
07.03.2013 15:45 13,2 C 48 % 1000,0 hPa 0,0 l/m 3,0 km/h (1 Bft) O-NO 60 0 min 0,000 mm 0,7 UV-I 162 W/m 2,4 C 13,2 C 8,0 km/h (2 Bft)
07.03.2013 15:50 13,0 C 48 % 999,9 hPa 0,0 l/m 3,2 km/h (1 Bft) O-NO 76 0 min 0,000 mm 0,6 UV-I 151 W/m 2,3 C 13,0 C 8,0 km/h (2 Bft)
07.03.2013 15:55 12,9 C 49 % 999,9 hPa 0,0 l/m 4,3 km/h (1 Bft) NO 40 0 min 0,000 mm 0,6 UV-I 167 W/m 2,5 C 12,9 C 11,3 km/h (2 Bft)
07.03.2013 16:00 12,6 C 50 % 1000,0 hPa 0,0 l/m 3,3 km/h (1 Bft) O-NO 78 0 min 0,000 mm 0,6 UV-I 183 W/m 2,5 C 12,6 C 8,0 km/h (2 Bft)
07.03.2013 16:05 12,3 C 51 % 999,9 hPa 0,0 l/m 4,4 km/h (1 Bft) NO 48 5 min 0,153 mm 0,6 UV-I 185 W/m 2,5 C 12,3 C 8,0 km/h (2 Bft)
07.03.2013 16:10 12,5 C 51 % 999,9 hPa 0,0 l/m 4,7 km/h (1 Bft) NO 51 5 min 0,000 mm 0,6 UV-I 206 W/m 2,6 C 12,5 C 11,3 km/h (2 Bft)
07.03.2013 16:15 12,7 C 50 % 999,9 hPa 0,0 l/m 4,5 km/h (1 Bft) O-NO 71 5 min 0,000 mm 0,6 UV-I 243 W/m 2,6 C 12,7 C 11,3 km/h (2 Bft)
07.03.2013 16:20 12,6 C 50 % 999,9 hPa 0,0 l/m 3,7 km/h (1 Bft) O-SO 110 5 min 0,000 mm 0,6 UV-I 285 W/m 2,5 C 12,6 C 8,0 km/h (2 Bft)
07.03.2013 16:25 12,5 C 50 % 999,9 hPa 0,0 l/m 5,5 km/h (1 Bft) O-SO 113 5 min 0,000 mm 0,5 UV-I 165 W/m 2,4 C 12,5 C 12,9 km/h (3 Bft)
07.03.2013 16:30 12,2 C 50 % 999,9 hPa 0,0 l/m 6,2 km/h (2 Bft) O 100 0 min 0,000 mm 0,0 UV-I 102 W/m 2,1 C 12,2 C 14,5 km/h (3 Bft)
07.03.2013 16:35 12,3 C 52 % 999,9 hPa 0,0 l/m 3,8 km/h (1 Bft) O-NO 67 0 min 0,000 mm 0,0 UV-I 121 W/m 2,7 C 12,3 C 6,4 km/h (2 Bft)
07.03.2013 16:40 12,7 C 51 % 999,9 hPa 0,0 l/m 4,7 km/h (1 Bft) NO 49 5 min 0,000 mm 0,0 UV-I 269 W/m 2,8 C 12,7 C 11,3 km/h (2 Bft)
07.03.2013 16:45 12,8 C 50 % 999,9 hPa 0,0 l/m 6,1 km/h (2 Bft) O-NO 61 5 min 0,000 mm 0,0 UV-I 174 W/m 2,6 C 12,8 C 11,3 km/h (2 Bft)
07.03.2013 16:50 12,8 C 50 % 999,9 hPa 0,0 l/m 3,1 km/h (1 Bft) O-NO 59 5 min 0,000 mm 0,0 UV-I 123 W/m 2,6 C 12,8 C 8,0 km/h (2 Bft)
07.03.2013 16:55 12,7 C 51 % 999,8 hPa 0,0 l/m 4,5 km/h (1 Bft) O-NO 65 0 min 0,000 mm 0,0 UV-I 74 W/m 2,8 C 12,7 C 9,7 km/h (2 Bft)
07.03.2013 17:00 12,4 C 51 % 999,9 hPa 0,0 l/m 5,2 km/h (1 Bft) O-NO 74 0 min 0,000 mm 0,0 UV-I 63 W/m 2,6 C 12,4 C 9,7 km/h (2 Bft)
07.03.2013 17:05 12,1 C 53 % 999,9 hPa 0,0 l/m 4,2 km/h (1 Bft) NO 46 0 min 0,127 mm 0,0 UV-I 63 W/m 2,8 C 12,1 C 8,0 km/h (2 Bft)
07.03.2013 17:10 11,8 C 54 % 1000,0 hPa 0,0 l/m 4,7 km/h (1 Bft) NO 49 0 min 0,000 mm 0,0 UV-I 70 W/m 2,8 C 11,8 C 8,0 km/h (2 Bft)
07.03.2013 17:15 11,7 C 55 % 1000,0 hPa 0,0 l/m 6,1 km/h (2 Bft) O-NO 73 0 min 0,000 mm 0,0 UV-I 65 W/m 3,0 C 11,7 C 12,9 km/h (3 Bft)
07.03.2013 17:20 11,6 C 55 % 1000,1 hPa 0,0 l/m 7,2 km/h (2 Bft) NO 37 0 min 0,000 mm 0,0 UV-I 58 W/m 2,9 C 11,1 C 12,9 km/h (3 Bft)
07.03.2013 17:25 11,5 C 56 % 1000,1 hPa 0,0 l/m 5,6 km/h (1 Bft) O-NO 75 0 min 0,000 mm 0,0 UV-I 51 W/m 3,0 C 11,5 C 11,3 km/h (2 Bft)
07.03.2013 17:30 11,4 C 56 % 1000,0 hPa 0,0 l/m 6,2 km/h (2 Bft) O-NO 72 0 min 0,000 mm 0,0 UV-I 42 W/m 2,9 C 11,4 C 11,3 km/h (2 Bft)
07.03.2013 17:35 11,3 C 56 % 1000,1 hPa 0,0 l/m 3,5 km/h (1 Bft) O-NO 67 0 min 0,000 mm 0,0 UV-I 37 W/m 2,8 C 11,3 C 8,0 km/h (2 Bft)
07.03.2013 17:40 11,3 C 57 % 1000,2 hPa 0,0 l/m 4,7 km/h (1 Bft) O-NO 73 0 min 0,000 mm 0,0 UV-I 37 W/m 3,1 C 11,3 C 11,3 km/h (2 Bft)
07.03.2013 17:45 11,2 C 57 % 1000,2 hPa 0,0 l/m 5,1 km/h (1 Bft) O-NO 60 0 min 0,000 mm 0,0 UV-I 39 W/m 3,0 C 11,2 C 8,0 km/h (2 Bft)
07.03.2013 17:50 11,1 C 58 % 1000,2 hPa 0,0 l/m 5,7 km/h (1 Bft) O-NO 59 5 min 0,000 mm 0,0 UV-I 35 W/m 3,2 C 11,1 C 11,3 km/h (2 Bft)
07.03.2013 17:55 11,1 C 58 % 1000,2 hPa 0,0 l/m 4,7 km/h (1 Bft) NO 42 5 min 0,000 mm 0,0 UV-I 30 W/m 3,2 C 11,1 C 11,3 km/h (2 Bft)
07.03.2013 18:00 10,9 C 58 % 1000,2 hPa 0,0 l/m 2,5 km/h (1 Bft) NO 53 5 min 0,000 mm 0,0 UV-I 23 W/m 3,0 C 10,9 C 6,4 km/h (2 Bft)
07.03.2013 18:05 10,8 C 59 % 1000,2 hPa 0,0 l/m 4,0 km/h (1 Bft) NO 55 5 min 0,051 mm 0,0 UV-I 14 W/m 3,1 C 10,8 C 8,0 km/h (2 Bft)
07.03.2013 18:10 10,8 C 59 % 1000,2 hPa 0,0 l/m 6,0 km/h (2 Bft) O-NO 69 0 min 0,000 mm 0,0 UV-I 9 W/m 3,1 C 10,8 C 12,9 km/h (3 Bft)
07.03.2013 18:15 10,7 C 60 % 1000,2 hPa 0,0 l/m 4,0 km/h (1 Bft) O-NO 59 0 min 0,000 mm 0,0 UV-I 5 W/m 3,3 C 10,7 C 9,7 km/h (2 Bft)
07.03.2013 18:20 10,6 C 60 % 1000,2 hPa 0,0 l/m 4,7 km/h (1 Bft) O-NO 59 0 min 0,000 mm 0,0 UV-I 0 W/m 3,2 C 10,6 C 11,3 km/h (2 Bft)
07.03.2013 18:25 10,4 C 61 % 1000,3 hPa 0,0 l/m 3,1 km/h (1 Bft) O-NO 62 0 min 0,000 mm 0,0 UV-I 0 W/m 3,2 C 10,4 C 6,4 km/h (2 Bft)
07.03.2013 18:30 10,2 C 61 % 1000,4 hPa 0,0 l/m 2,7 km/h (1 Bft) NO 53 0 min 0,000 mm 0,0 UV-I 0 W/m 3,0 C 10,2 C 9,7 km/h (2 Bft)
07.03.2013 18:35 10,2 C 62 % 1000,4 hPa 0,0 l/m 2,6 km/h (1 Bft) O-NO 57 0 min 0,000 mm 0,0 UV-I 0 W/m 3,3 C 10,2 C 6,4 km/h (2 Bft)
07.03.2013 18:40 10,1 C 62 % 1000,4 hPa 0,0 l/m 1,4 km/h (1 Bft) O-NO 57 0 min 0,000 mm 0,0 UV-I 0 W/m 3,2 C 10,1 C 3,2 km/h (1 Bft)
07.03.2013 18:45 10,1 C 62 % 1000,4 hPa 0,0 l/m 1,3 km/h (1 Bft) NO 55 0 min 0,000 mm 0,0 UV-I 0 W/m 3,2 C 10,1 C 4,8 km/h (1 Bft)
07.03.2013 18:50 9,9 C 63 % 1000,4 hPa 0,0 l/m 1,4 km/h (1 Bft) NO 55 0 min 0,000 mm 0,0 UV-I 0 W/m 3,2 C 9,9 C 4,8 km/h (1 Bft)
07.03.2013 18:55 9,9 C 64 % 1000,6 hPa 0,0 l/m 1,1 km/h (1 Bft) NO 55 0 min 0,000 mm 0,0 UV-I 0 W/m 3,4 C 9,9 C 4,8 km/h (1 Bft)
07.03.2013 19:00 9,8 C 64 % 1000,7 hPa 0,0 l/m 0,9 km/h (0 Bft) NO 55 0 min 0,000 mm 0,0 UV-I 0 W/m 3,3 C 9,8 C 4,8 km/h (1 Bft)
07.03.2013 19:05 9,7 C 65 % 1000,8 hPa 0,0 l/m 1,4 km/h (1 Bft) NO 55 0 min 0,025 mm 0,0 UV-I 0 W/m 3,4 C 9,7 C 4,8 km/h (1 Bft)
07.03.2013 19:10 9,6 C 65 % 1000,8 hPa 0,0 l/m 5,2 km/h (1 Bft) O-NO 59 0 min 0,000 mm 0,0 UV-I 0 W/m 3,4 C 9,6 C 12,9 km/h (3 Bft)
07.03.2013 19:15 9,6 C 66 % 1000,9 hPa 0,0 l/m 6,4 km/h (2 Bft) O-NO 73 0 min 0,000 mm 0,0 UV-I 0 W/m 3,6 C 9,6 C 14,5 km/h (3 Bft)
07.03.2013 19:20 9,5 C 67 % 1000,8 hPa 0,0 l/m 5,7 km/h (1 Bft) O-NO 58 0 min 0,000 mm 0,0 UV-I 0 W/m 3,7 C 9,5 C 12,9 km/h (3 Bft)
07.03.2013 19:25 9,4 C 67 % 1000,9 hPa 0,0 l/m 5,4 km/h (1 Bft) NO 53 0 min 0,000 mm 0,0 UV-I 0 W/m 3,6 C 9,4 C 11,3 km/h (2 Bft)
07.03.2013 19:30 9,4 C 67 % 1000,9 hPa 0,0 l/m 2,7 km/h (1 Bft) NO 53 0 min 0,000 mm 0,0 UV-I 0 W/m 3,6 C 9,4 C 6,4 km/h (2 Bft)
07.03.2013 19:35 9,3 C 67 % 1000,9 hPa 0,0 l/m 2,6 km/h (1 Bft) NO 53 0 min 0,000 mm 0,0 UV-I 0 W/m 3,5 C 9,3 C 6,4 km/h (2 Bft)
07.03.2013 19:40 9,3 C 68 % 1000,9 hPa 0,0 l/m 3,5 km/h (1 Bft) O-NO 58 0 min 0,000 mm 0,0 UV-I 0 W/m 3,7 C 9,3 C 8,0 km/h (2 Bft)
07.03.2013 19:45 9,2 C 68 % 1000,9 hPa 0,0 l/m 1,9 km/h (1 Bft) O-NO 57 0 min 0,000 mm 0,0 UV-I 0 W/m 3,6 C 9,2 C 8,0 km/h (2 Bft)
07.03.2013 19:50 9,2 C 68 % 1000,9 hPa 0,0 l/m 1,2 km/h (1 Bft) O-NO 67 0 min 0,000 mm 0,0 UV-I 0 W/m 3,6 C 9,2 C 3,2 km/h (1 Bft)
07.03.2013 19:55 9,1 C 69 % 1001,0 hPa 0,0 l/m 0,9 km/h (0 Bft) O 82 0 min 0,000 mm 0,0 UV-I 0 W/m 3,7 C 9,1 C 4,8 km/h (1 Bft)
07.03.2013 20:00 8,9 C 70 % 1001,0 hPa 0,0 l/m 0,9 km/h (0 Bft) O 82 0 min 0,000 mm 0,0 UV-I 0 W/m 3,7 C 8,9 C 3,2 km/h (1 Bft)
07.03.2013 20:05 8,8 C 71 % 1001,0 hPa 0,0 l/m 1,0 km/h (0 Bft) O 82 0 min 0,025 mm 0,0 UV-I 0 W/m 3,8 C 8,8 C 3,2 km/h (1 Bft)
07.03.2013 20:10 8,8 C 71 % 1001,1 hPa 0,0 l/m 1,3 km/h (1 Bft) O 90 0 min 0,000 mm 0,0 UV-I 0 W/m 3,8 C 8,8 C 4,8 km/h (1 Bft)
07.03.2013 20:15 8,8 C 72 % 1001,3 hPa 0,0 l/m 1,1 km/h (1 Bft) O 88 0 min 0,000 mm 0,0 UV-I 0 W/m 4,0 C 8,8 C 3,2 km/h (1 Bft)
07.03.2013 20:20 8,7 C 74 % 1001,3 hPa 0,0 l/m 1,8 km/h (1 Bft) O-NO 63 0 min 0,000 mm 0,0 UV-I 0 W/m 4,3 C 8,7 C 6,4 km/h (2 Bft)
07.03.2013 20:25 8,7 C 76 % 1001,2 hPa 0,2 l/m 2,6 km/h (1 Bft) O-NO 71 0 min 0,000 mm 0,0 UV-I 0 W/m 4,7 C 8,7 C 6,4 km/h (2 Bft)
07.03.2013 20:30 8,4 C 78 % 1001,1 hPa 0,0 l/m 5,0 km/h (1 Bft) N 5 0 min 0,000 mm 0,0 UV-I 0 W/m 4,8 C 8,4 C 11,3 km/h (2 Bft)
07.03.2013 20:35 8,2 C 80 % 1001,1 hPa 0,0 l/m 2,2 km/h (1 Bft) NO 35 0 min 0,000 mm 0,0 UV-I 0 W/m 5,0 C 8,2 C 11,3 km/h (2 Bft)
07.03.2013 20:40 8,1 C 80 % 1001,4 hPa 0,2 l/m 0,7 km/h (0 Bft) S 184 0 min 0,000 mm 0,0 UV-I 0 W/m 4,9 C 8,1 C 3,2 km/h (1 Bft)
07.03.2013 20:45 8,0 C 80 % 1001,4 hPa 0,0 l/m 0,2 km/h (0 Bft) S 188 0 min 0,000 mm 0,0 UV-I 0 W/m 4,8 C 8,0 C 3,2 km/h (1 Bft)
07.03.2013 20:50 7,9 C 82 % 1001,4 hPa 0,0 l/m 0,0 km/h (0 Bft) S 188 0 min 0,000 mm 0,0 UV-I 0 W/m 5,0 C 7,9 C 1,6 km/h (1 Bft)
07.03.2013 20:55 7,8 C 82 % 1001,4 hPa 0,0 l/m 1,2 km/h (1 Bft) O-SO 122 0 min 0,000 mm 0,0 UV-I 0 W/m 4,9 C 7,8 C 3,2 km/h (1 Bft)
07.03.2013 21:00 7,8 C 83 % 1001,4 hPa 0,0 l/m 0,5 km/h (0 Bft) O-SO 103 0 min 0,000 mm 0,0 UV-I 0 W/m 5,1 C 7,8 C 4,8 km/h (1 Bft)
07.03.2013 21:05 7,7 C 84 % 1001,4 hPa 0,0 l/m 0,8 km/h (0 Bft) O-SO 103 0 min 0,026 mm 0,0 UV-I 0 W/m 5,2 C 7,7 C 3,2 km/h (1 Bft)
07.03.2013 21:10 7,6 C 84 % 1001,5 hPa 0,2 l/m 0,6 km/h (0 Bft) O-SO 103 0 min 0,000 mm 0,0 UV-I 0 W/m 5,1 C 7,6 C 1,6 km/h (1 Bft)
07.03.2013 21:15 7,5 C 84 % 1001,5 hPa 0,0 l/m 1,8 km/h (1 Bft) NO 56 0 min 0,000 mm 0,0 UV-I 0 W/m 5,0 C 7,5 C 4,8 km/h (1 Bft)
07.03.2013 21:20 7,4 C 85 % 1001,7 hPa 0,2 l/m 0,8 km/h (0 Bft) NO 56 0 min 0,000 mm 0,0 UV-I 0 W/m 5,0 C 7,4 C 4,8 km/h (1 Bft)
07.03.2013 21:25 7,3 C 86 % 1001,5 hPa 0,0 l/m 2,7 km/h (1 Bft) NO 56 0 min 0,000 mm 0,0 UV-I 0 W/m 5,1 C 7,3 C 4,8 km/h (1 Bft)
07.03.2013 21:30 7,2 C 87 % 1001,6 hPa 0,2 l/m 0,9 km/h (0 Bft) NO 56 0 min 0,000 mm 0,0 UV-I 0 W/m 5,2 C 7,2 C 3,2 km/h (1 Bft)
07.03.2013 21:35 7,1 C 88 % 1001,7 hPa 0,2 l/m 1,8 km/h (1 Bft) NO 56 0 min 0,000 mm 0,0 UV-I 0 W/m 5,2 C 7,1 C 4,8 km/h (1 Bft)
07.03.2013 21:40 6,9 C 88 % 1001,6 hPa 0,0 l/m 2,2 km/h (1 Bft) NO 56 0 min 0,000 mm 0,0 UV-I 0 W/m 5,1 C 6,9 C 4,8 km/h (1 Bft)
07.03.2013 21:45 6,8 C 89 % 1001,6 hPa 0,2 l/m 2,0 km/h (1 Bft) O-NO 69 0 min 0,000 mm 0,0 UV-I 0 W/m 5,1 C 6,8 C 8,0 km/h (2 Bft)
07.03.2013 21:50 6,7 C 89 % 1001,9 hPa 0,2 l/m 2,1 km/h (1 Bft) O-NO 71 0 min 0,000 mm 0,0 UV-I 0 W/m 5,0 C 6,7 C 4,8 km/h (1 Bft)
07.03.2013 21:55 6,7 C 90 % 1001,8 hPa 0,2 l/m 2,5 km/h (1 Bft) NO 51 0 min 0,000 mm 0,0 UV-I 0 W/m 5,2 C 6,7 C 8,0 km/h (2 Bft)
07.03.2013 22:00 6,7 C 90 % 1001,9 hPa 0,2 l/m 0,3 km/h (0 Bft) NO 52 0 min 0,000 mm 0,0 UV-I 0 W/m 5,2 C 6,7 C 3,2 km/h (1 Bft)
07.03.2013 22:05 6,6 C 90 % 1001,9 hPa 0,0 l/m 0,6 km/h (0 Bft) NO 52 0 min 0,000 mm 0,0 UV-I 0 W/m 5,1 C 6,6 C 3,2 km/h (1 Bft)
07.03.2013 22:10 6,6 C 90 % 1001,8 hPa 0,2 l/m 1,7 km/h (1 Bft) NO 52 0 min 0,000 mm 0,0 UV-I 0 W/m 5,1 C 6,6 C 3,2 km/h (1 Bft)
07.03.2013 22:15 6,5 C 90 % 1001,7 hPa 0,0 l/m 2,6 km/h (1 Bft) O-NO 58 0 min 0,000 mm 0,0 UV-I 0 W/m 5,0 C 6,5 C 8,0 km/h (2 Bft)
07.03.2013 22:20 6,4 C 91 % 1001,6 hPa 0,0 l/m 4,2 km/h (1 Bft) O-NO 62 0 min 0,000 mm 0,0 UV-I 0 W/m 5,0 C 6,4 C 8,0 km/h (2 Bft)
07.03.2013 22:25 6,3 C 91 % 1001,6 hPa 0,0 l/m 3,2 km/h (1 Bft) O-NO 57 0 min 0,000 mm 0,0 UV-I 0 W/m 4,9 C 6,3 C 6,4 km/h (2 Bft)
07.03.2013 22:30 6,3 C 91 % 1001,6 hPa 0,0 l/m 3,4 km/h (1 Bft) O 93 0 min 0,000 mm 0,0 UV-I 0 W/m 4,9 C 6,3 C 9,7 km/h (2 Bft)
07.03.2013 22:35 6,2 C 91 % 1001,6 hPa 0,2 l/m 2,7 km/h (1 Bft) O 82 0 min 0,000 mm 0,0 UV-I 0 W/m 4,8 C 6,2 C 4,8 km/h (1 Bft)
07.03.2013 22:40 6,2 C 92 % 1001,7 hPa 0,0 l/m 1,4 km/h (1 Bft) O 82 0 min 0,000 mm 0,0 UV-I 0 W/m 5,0 C 6,2 C 3,2 km/h (1 Bft)
07.03.2013 22:45 6,2 C 92 % 1001,6 hPa 0,0 l/m 1,7 km/h (1 Bft) O-NO 75 0 min 0,000 mm 0,0 UV-I 0 W/m 5,0 C 6,2 C 4,8 km/h (1 Bft)
07.03.2013 22:50 6,1 C 92 % 1001,6 hPa 0,0 l/m 3,4 km/h (1 Bft) O-NO 57 0 min 0,000 mm 0,0 UV-I 0 W/m 4,9 C 6,1 C 6,4 km/h (2 Bft)
07.03.2013 22:55 6,1 C 92 % 1001,5 hPa 0,0 l/m 2,7 km/h (1 Bft) O-NO 57 0 min 0,000 mm 0,0 UV-I 0 W/m 4,9 C 6,1 C 6,4 km/h (2 Bft)
07.03.2013 23:00 6,1 C 92 % 1001,5 hPa 0,0 l/m 3,0 km/h (1 Bft) O-NO 57 0 min 0,000 mm 0,0 UV-I 0 W/m 4,9 C 6,1 C 6,4 km/h (2 Bft)
07.03.2013 23:05 6,1 C 92 % 1001,5 hPa 0,0 l/m 2,5 km/h (1 Bft) O 82 0 min 0,000 mm 0,0 UV-I 0 W/m 4,9 C 6,1 C 6,4 km/h (2 Bft)
07.03.2013 23:10 6,0 C 92 % 1001,5 hPa 0,0 l/m 1,5 km/h (1 Bft) O 81 0 min 0,000 mm 0,0 UV-I 0 W/m 4,8 C 6,0 C 3,2 km/h (1 Bft)
07.03.2013 23:15 6,0 C 92 % 1001,4 hPa 0,0 l/m 2,3 km/h (1 Bft) O-NO 66 0 min 0,000 mm 0,0 UV-I 0 W/m 4,8 C 6,0 C 4,8 km/h (1 Bft)
07.03.2013 23:20 6,0 C 92 % 1001,4 hPa 0,0 l/m 3,7 km/h (1 Bft) NO 54 0 min 0,000 mm 0,0 UV-I 0 W/m 4,8 C 6,0 C 6,4 km/h (2 Bft)
07.03.2013 23:25 5,9 C 92 % 1001,3 hPa 0,0 l/m 5,9 km/h (2 Bft) NO 52 0 min 0,000 mm 0,0 UV-I 0 W/m 4,7 C 5,9 C 12,9 km/h (3 Bft)
07.03.2013 23:30 5,9 C 92 % 1001,3 hPa 0,0 l/m 3,9 km/h (1 Bft) O-NO 58 0 min 0,000 mm 0,0 UV-I 0 W/m 4,7 C 5,9 C 8,0 km/h (2 Bft)
07.03.2013 23:35 5,9 C 92 % 1001,3 hPa 0,0 l/m 3,6 km/h (1 Bft) O-NO 67 0 min 0,000 mm 0,0 UV-I 0 W/m 4,7 C 5,9 C 6,4 km/h (2 Bft)
07.03.2013 23:40 5,8 C 92 % 1001,3 hPa 0,0 l/m 5,3 km/h (1 Bft) NO 51 0 min 0,000 mm 0,0 UV-I 0 W/m 4,6 C 5,8 C 8,0 km/h (2 Bft)
07.03.2013 23:45 5,8 C 92 % 1001,4 hPa 0,0 l/m 1,3 km/h (1 Bft) NO 55 0 min 0,000 mm 0,0 UV-I 0 W/m 4,6 C 5,8 C 4,8 km/h (1 Bft)
07.03.2013 23:50 5,8 C 92 % 1001,3 hPa 0,0 l/m 1,9 km/h (1 Bft) NO 55 0 min 0,000 mm 0,0 UV-I 0 W/m 4,6 C 5,8 C 4,8 km/h (1 Bft)
07.03.2013 23:55 5,8 C 92 % 1001,3 hPa 0,0 l/m 1,7 km/h (1 Bft) O-NO 58 0 min 0,000 mm 0,0 UV-I 0 W/m 4,6 C 5,8 C 6,4 km/h (2 Bft)
_ Min-Zeit 01:40 15:40 15:15 - 00:00 - - - - - - 01:00 01:45 00:00
Minimum _ 1,8 C 47 % 999,8 hPa - 0,0 km/h (0 Bft) - - - - - - -1,2 C 1,8 C 0,0 km/h (0 Bft)
_ Max-Zeit 15:40 22:40 21:50 20:25 17:20 - - 10:35 16:05 11:40 15:25 21:35 15:35 16:30
Maximum _ 13,7 C 92 % 1001,9 hPa 0,2 l/m 7,2 km/h
NO (2 Bft)
- - 5 min 0,153 mm 1,6 UV-I 448 W/m 5,2 C 13,6 C 14,5 km/h
O-SO (3 Bft)
Durchschnitt _ 6,9 C 72 % 1000,7 hPa #2,4 l/m 1,6 km/h (1 Bft) O-NO - #2:15 h #1,067 mm 1,0 UV-I 158 W/m 1,9 C 6,9 C 4,3 km/h (1 Bft)